Weather History for KPAE - April, 2013

Change the Weather History Date:

Wednesday, April 24, 2013

  Actual Average Record
Temperature  
Mean Temperature 55 °F -  
Max Temperature 66 °F 59 °F 75 °F (1981)
Min Temperature 44 °F 42 °F 31 °F (1950)
Degree Days  
Heating Degree Days 10    
Growing Degree Days 5 (Base 50)    
Moisture  
Dew Point 35 °F    
Average Humidity 51    
Maximum Humidity 79    
Minimum Humidity 26    
Precipitation  
Precipitation 0.00 in - - ()
Sea Level Pressure  
Sea Level Pressure 30.23 in    
Wind  
Wind Speed 3 mph (North)    
Max Wind Speed 7 mph    
Max Gust Speed -    
Visibility 10 miles    
Events      
Averages and records for this station are not official NWS values.
T = Trace of Precipitation, MM = Missing Value Source: NWS Daily Summary

Daily Weather History Graph

Daily Weather History Graph

Search for Another Location

Airport or City:

Trip Planner

Search our weather history database for the weather conditions in past years. The results will help you decide how hot, cold, wet, or windy it might be!

Date:

Astronomy

Apr. 24, 2013 Rise Set
Actual Time 6:02 AM PDT 8:12 PM PDT
Civil Twilight 5:28 AM PDT 8:46 PM PDT
Nautical Twilight 4:47 AM PDT 9:28 PM PDT
Astronomical Twilight 4:00 AM PDT 10:16 PM PDT
Moon 7:20 PM PDT (4/24) 5:14 AM PDT (4/24)
Length of Visible Light 15h 17m
Length of Day
14h 10m
Waxing Gibbous, 98% of the Moon is Illuminated
Apr 24
Waxing Gibbous
Apr 25
Full
May 2
Last Quarter
May 9
New
May 17
First Quarter

Hourly Weather History & Observations

Time (PDT) Temp. Windchill Dew Point Humidity Pressure Visibility Wind Dir Wind Speed Gust Speed Precip Events Conditions
12:53 AM 44.1 °F - 37.9 °F 79% 30.32 in 10.0 mi Calm Calm - N/A   Clear
1:53 AM 44.1 °F 42.5 °F 37.9 °F 79% 30.32 in 10.0 mi North 3.5 mph - N/A   Clear
2:53 AM 44.6 °F - 37.4 °F 76% 30.31 in 10.0 mi Calm Calm - N/A   Clear
3:53 AM 44.1 °F 41.5 °F 37.9 °F 79% 30.32 in 10.0 mi NE 4.6 mph - N/A   Clear
4:53 AM 45.0 °F 42.6 °F 36.0 °F 71% 30.33 in 10.0 mi East 4.6 mph - N/A   Clear
5:53 AM 44.1 °F - 36.0 °F 73% 30.33 in 10.0 mi Calm Calm - N/A   Clear
6:53 AM 44.1 °F 41.5 °F 36.0 °F 73% 30.33 in 10.0 mi ESE 4.6 mph - N/A   Clear
7:53 AM 48.0 °F - 36.0 °F 63% 30.33 in 10.0 mi Calm Calm - N/A   Clear
8:53 AM 54.0 °F - 37.9 °F 55% 30.32 in 10.0 mi Calm Calm - N/A   Clear
9:53 AM 55.0 °F - 36.0 °F 49% 30.31 in 10.0 mi NNE 4.6 mph - N/A   Clear
10:53 AM 57.0 °F - 39.0 °F 51% 30.30 in 10.0 mi Variable 4.6 mph - N/A   Clear
11:53 AM 57.9 °F - 37.9 °F 47% 30.29 in 10.0 mi NNE 4.6 mph - N/A   Clear
12:53 PM 61.0 °F - 39.0 °F 44% 30.26 in 10.0 mi Variable 4.6 mph - N/A   Clear
1:53 PM 63.0 °F - 37.9 °F 40% 30.24 in 10.0 mi North 5.8 mph - N/A   Clear
2:53 PM 64.9 °F - 28.9 °F 26% 30.22 in 10.0 mi North 5.8 mph - N/A   Clear
3:53 PM 66.0 °F - 30.0 °F 26% 30.19 in 10.0 mi North 4.6 mph - N/A   Clear
4:53 PM 64.0 °F - 32.0 °F 30% 30.16 in 10.0 mi NW 4.6 mph - N/A   Clear
5:53 PM 63.0 °F - 33.1 °F 33% 30.14 in 10.0 mi NNW 4.6 mph - N/A   Clear
6:53 PM 62.1 °F - 33.1 °F 34% 30.13 in 10.0 mi NNW 4.6 mph - N/A   Clear
7:53 PM 60.1 °F - 30.9 °F 33% 30.11 in 10.0 mi Calm Calm - N/A   Clear
8:53 PM 54.0 °F - 35.1 °F 49% 30.10 in 10.0 mi West 3.5 mph - N/A   Clear
9:53 PM 55.0 °F - 28.9 °F 37% 30.10 in 10.0 mi North 3.5 mph - N/A   Clear
10:53 PM 52.0 °F - 30.9 °F 45% 30.09 in 10.0 mi NNW 5.8 mph - N/A   Clear
11:53 PM 53.1 °F - 30.9 °F 43% 30.07 in 10.0 mi North 6.9 mph - N/A   Clear